sat.trackr.live / text

‹ back to catalog

STARLINK-34194

NORAD 64179 · 2025-113K

PAYLOAD ACTIVE UNKNOWN

§ Identity

Operator
Country
US
Launch date
2025-05-28
Launch site
AFETR
Launch vehicle
Mass (kg)
RCS (m²)

Purposes: comms

External: N2YO · Heavens-Above · Gunter

§ Orbital elements

Epoch: 2026-09-20T05:15:34.239456Z

Period
93.85 min
Inclination
53.1568°
Eccentricity
0.0000925
Mean motion
15.34407695 rev/d
Perigee alt
462.0 km
Apogee alt
463.3 km
Semi-major
6,840.8 km
B*
4.4315e-4
RAAN
262.9399°
Arg perigee
77.6168°
Mean anomaly
282.4939°
Rev number
7,491

§ Raw data

STARLINK-341941 64179U 25113K   26263.21914629  .00014629  00000+0  44315-3 0  99932 64179  53.1568 262.9399 0000925  77.6168 282.4939 15.34407695 74910

JSON: /api/v1/satellites/64179 · /tle

For live sub-satellite position, see the globe view (requires WebGL).

§ Visibility from observer

Set your observer location to see the next 7 days of passes ≥ 10°. The values pass through the URL so the page stays shareable.

No JS? Fill the form by hand. The geolocation button needs JavaScript.